EB1RD-13 Weather Reports


time (UTC)temp
C
wind
direction
speed
KPH
gust
KPH
rain 1hr
cm
rain 24hr
cm
rain mn
cm
humidity
%
barometer
mb
20260508065526 12 0.0 0.0 0.00 0.05 0.00 83 1007.6
20260508064604 11 59 1.6 3.2 0.00 0.05 0.00 84 1007.7
20260508063522 11 0.0 0.0 0.00 0.05 0.00 85 1007.7
20260508062521 11 0.0 1.6 0.00 0.05 0.00 84 1007.6
20260508061518 11 63 1.6 3.2 0.00 0.05 0.00 84 1007.8
20260508060516 11 0.0 1.6 0.00 0.05 0.00 85 1007.8
20260508055614 11 0.0 1.6 0.00 0.05 0.00 85 1007.7
20260508054632 11 90 1.6 4.8 0.00 0.05 0.00 85 1007.7
20260508053610 11 84 0.0 3.2 0.00 0.05 0.00 84 1007.7
20260508052610 11 82 1.6 3.2 0.00 0.05 0.00 85 1007.8
20260508051606 11 0.0 0.0 0.00 0.05 0.00 85 1007.6
20260508050604 11 105 0.0 3.2 0.00 0.05 0.00 84 1007.6
20260508045602 11 62 1.6 3.2 0.00 0.05 0.00 84 1007.6
20260508044602 11 90 0.0 3.2 0.00 0.05 0.00 84 1007.5
20260508043558 11 275 1.6 4.8 0.00 0.05 0.00 84 1007.6
20260508042556 11 0.0 0.0 0.00 0.05 0.00 84 1007.6
20260508041556 11 60 0.0 3.2 0.00 0.05 0.00 84 1007.7
20260508040553 11 0.0 3.2 0.00 0.05 0.00 83 1007.9
20260508035551 10 225 0.0 4.8 0.00 0.05 0.00 84 1007.9
20260508034549 11 110 3.2 6.4 0.00 0.05 0.00 83 1008.1
20260508033546 11 87 3.2 6.4 0.00 0.05 0.00 83 1008.2
20260508032625 11 90 1.6 3.2 0.00 0.05 0.00 82 1008.4
20260508031543 11 0.0 1.6 0.00 0.05 0.00 82 1008.5
20260508030540 11 0.0 1.6 0.00 0.05 0.00 82 1008.4
20260508025538 11 0.0 3.2 0.00 0.05 0.00 82 1008.5
20260508024537 11 243 0.0 3.2 0.00 0.05 0.00 82 1008.6
20260508023535 11 101 0.0 3.2 0.00 0.05 0.00 81 1008.6
20260508022553 11 0.0 1.6 0.00 0.05 0.00 81 1008.6
20260508021551 11 0.0 0.0 0.00 0.05 0.00 81 1008.5
20260508020529 11 0.0 0.0 0.00 0.05 0.00 81 1008.6
20260508015527 11 0.0 3.2 0.00 0.05 0.00 81 1008.7
20260508014525 11 0.0 1.6 0.00 0.05 0.00 81 1008.8
20260508013523 11 0.0 1.6 0.00 0.05 0.00 81 1008.8
20260508012521 11 0.0 1.6 0.00 0.05 0.00 80 1008.8
20260508011519 11 92 1.6 6.4 0.00 0.05 0.00 80 1009.0
20260508010517 11 45 1.6 3.2 0.00 0.05 0.00 80 1009.2
20260508005515 11 0.0 3.2 0.00 0.05 0.00 80 1009.3
20260508004613 12 0.0 1.6 0.00 0.05 0.00 79 1009.3
20260508003611 12 0.0 1.6 0.00 0.05 0.00 79 1009.5
20260508002609 12 270 0.0 3.2 0.00 0.05 0.00 79 1009.4
20260508001607 12 0.0 0.0 0.00 0.05 0.00 78 1009.3
20260508000605 12 0.0 3.2 0.00 0.05 0.00 78 1009.5
20260507235623 12 45 0.0 3.2 0.00 0.05 0.00 78 1009.5
20260507234623 12 117 1.6 3.2 0.00 0.05 0.00 78 1009.6
20260507233559 12 90 0.0 3.2 0.00 0.05 0.00 76 1009.8
20260507232617 12 0.0 0.0 0.00 0.05 0.00 75 1010.0
20260507231555 12 45 3.2 6.4 0.00 0.05 0.00 73 1009.9
20260507230553 13 226 1.6 6.4 0.00 0.05 0.00 73 1010.0
20260507225551 13 233 1.6 6.4 0.00 0.05 0.00 74 1009.9
20260507224609 12 197 3.2 6.4 0.00 0.05 0.00 77 1009.9
20260507223547 12 222 3.2 6.4 0.00 0.05 0.00 78 1010.0
20260507222545 12 250 1.6 6.4 0.00 0.05 0.00 78 1009.8
20260507221543 12 90 0.0 3.2 0.00 0.05 0.00 78 1010.0
20260507220541 12 0.0 0.0 0.00 0.05 0.00 76 1010.1
20260507215539 12 0.0 3.2 0.00 0.05 0.05 75 1010.1
20260507214538 12 0.0 0.0 0.00 0.05 0.05 75 1010.1
20260507213536 12 0.0 0.0 0.00 0.05 0.05 75 1010.2
20260507212533 13 0.0 3.2 0.00 0.05 0.05 75 1010.3
20260507211531 13 0.0 1.6 0.00 0.05 0.05 75 1010.4
20260507210550 13 242 3.2 6.4 0.00 0.05 0.05 75 1010.4
20260507205528 13 135 0.0 3.2 0.00 0.05 0.05 74 1010.3
20260507204526 13 83 0.0 3.2 0.00 0.05 0.05 74 1010.0
20260507203525 13 90 0.0 3.2 0.00 0.05 0.05 74 1010.0
20260507202522 13 90 0.0 3.2 0.00 0.05 0.05 73 1009.9
20260507201520 13 0.0 3.2 0.00 0.05 0.05 70 1009.9
20260507200518 13 0.0 0.0 0.00 0.05 0.05 68 1009.8
20260507195516 14 0.0 1.6 0.00 0.05 0.05 66 1009.6
20260507194614 15 90 0.0 3.2 0.00 0.05 0.05 65 1009.6
20260507193612 15 69 0.0 4.8 0.00 0.05 0.05 63 1009.6
20260507192610 15 227 3.2 6.4 0.00 0.05 0.05 62 1009.6
20260507191608 16 203 1.6 6.4 0.00 0.05 0.05 59 1009.4
20260507190628 17 146 3.2 4.8 0.00 0.05 0.05 54 1009.2
20260507185604 17 0.0 1.6 0.00 0.05 0.05 55 1009.3
20260507184622 18 270 0.0 3.2 0.00 0.05 0.05 54 1009.3
20260507183602 17 158 0.0 3.2 0.03 0.05 0.05 58 1009.3
20260507182558 16 167 1.6 4.8 0.03 0.05 0.05 61 1009.1
20260507181637 16 192 1.6 3.2 0.03 0.05 0.05 59 1009.2
20260507180554 16 45 1.6 3.2 0.03 0.05 0.05 66 1009.2
20260507175552 16 100 3.2 8.0 0.03 0.05 0.05 67 1008.9
20260507174610 17 38 12.9 17.7 0.03 0.05 0.05 60 1008.9
20260507173548 17 55 0.0 4.8 0.00 0.03 0.03 61 1009.6
20260507172546 17 90 1.6 3.2 0.00 0.03 0.03 58 1009.6
20260507171544 17 50 1.6 3.2 0.00 0.03 0.03 56 1009.5
20260507170542 17 59 1.6 3.2 0.00 0.03 0.03 56 1009.4
20260507165540 18 20 1.6 4.8 0.00 0.03 0.03 56 1009.2
20260507164538 18 329 1.6 6.4 0.00 0.03 0.03 55 1009.0
20260507163537 18 290 1.6 8.0 0.00 0.03 0.03 55 1008.8
20260507162536 18 329 3.2 8.0 0.00 0.03 0.03 53 1008.6
20260507161554 19 282 3.2 6.4 0.03 0.03 0.03 51 1008.7
20260507160530 20 0 1.6 3.2 0.03 0.03 0.03 46 1008.6
20260507155528 20 351 3.2 6.4 0.03 0.03 0.03 50 1008.6
20260507154528 20 137 3.2 6.4 0.03 0.03 0.03 50 1008.6
20260507153525 18 240 3.2 6.4 0.03 0.03 0.03 56 1008.7
20260507152522 17 18 3.2 8.0 0.03 0.03 0.03 57 1008.6
20260507151520 17 233 4.8 8.0 0.00 0.00 0.00 56 1008.6
20260507150519 17 45 12.9 19.3 0.00 0.00 0.00 52 1008.2
20260507145517 18 24 4.8 8.0 0.00 0.00 0.00 52 1008.8
20260507144514 18 290 9.7 16.1 0.00 0.00 0.00 49 1009.0
20260507143613 18 283 4.8 11.3 0.00 0.00 0.00 48 1008.9
20260507142611 19 42 1.6 6.4 0.00 0.00 0.00 48 1008.9
20260507141609 20 13 6.4 14.5 0.00 0.00 0.00 45 1008.7
20260507140607 20 224 6.4 17.7 0.00 0.00 0.00 44 1008.6
20260507135605 19 351 4.8 12.9 0.00 0.00 0.00 48 1008.8
20260507134603 18 32 6.4 12.9 0.00 0.00 0.00 52 1008.8
20260507133621 19 30 8.0 12.9 0.00 0.00 0.00 47 1008.9
20260507132559 19 232 4.8 9.7 0.00 0.00 0.00 49 1009.3
20260507131559 19 47 6.4 9.7 0.00 0.00 0.00 48 1009.3
20260507130555 20 309 4.8 9.7 0.00 0.00 0.00 48 1009.2
20260507125553 20 283 6.4 12.9 0.00 0.00 0.00 49 1009.4
20260507124551 19 352 4.8 12.9 0.00 0.00 0.00 51 1009.4
20260507123549 19 47 6.4 12.9 0.00 0.00 0.00 52 1009.5
20260507122547 18 354 6.4 17.7 0.00 0.00 0.00 53 1009.3
20260507121545 18 74 6.4 12.9 0.00 0.00 0.00 51 1010.0
20260507120543 20 225 4.8 9.7 0.00 0.00 0.00 44 1009.9
20260507115541 20 8 3.2 6.4 0.00 0.00 0.00 44 1010.0
20260507114539 20 330 4.8 11.3 0.00 0.00 0.00 45 1010.3
20260507113537 20 322 3.2 6.4 0.00 0.00 0.00 48 1010.2
20260507112537 20 311 3.2 9.7 0.00 0.00 0.00 45 1010.4
20260507111533 20 325 3.2 8.0 0.00 0.00 0.00 48 1010.3
20260507110551 18 320 3.2 6.4 0.00 0.00 0.00 49 1010.2
20260507105529 18 50 6.4 11.3 0.00 0.00 0.00 47 1010.4
20260507104527 18 40 9.7 14.5 0.00 0.00 0.00 45 1010.5
20260507103525 18 24 6.4 9.7 0.00 0.00 0.00 44 1010.7
20260507102543 19 58 3.2 14.5 0.00 0.00 0.00 44 1010.8
20260507101521 17 179 3.2 6.4 0.00 0.00 0.00 48 1010.8
20260507100539 18 270 3.2 3.2 0.00 0.00 0.00 47 1010.9
20260507095607 17 357 3.2 6.4 0.00 0.00 0.00 49 1010.9
20260507094605 16 225 3.2 6.4 0.00 0.00 0.00 52 1011.1
20260507093545 17 6 4.8 9.7 0.00 0.00 0.00 49 1011.1
20260507092542 17 31 3.2 6.4 0.00 0.00 0.00 50 1011.2
20260507091539 16 287 3.2 6.4 0.00 0.00 0.00 53 1011.2
20260507090558 15 44 3.2 6.4 0.00 0.00 0.00 57 1011.2
20260507085535 15 53 3.2 8.0 0.00 0.00 0.00 54 1011.1
20260507084533 17 38 3.2 9.7 0.00 0.00 0.00 50 1011.1
20260507083533 18 92 1.6 4.8 0.00 0.00 0.00 54 1011.2
20260507082531 16 45 0.0 3.2 0.00 0.00 0.00 58 1011.3
20260507081529 15 346 1.6 3.2 0.00 0.00 0.00 65 1011.3
20260507080526 13 45 0.0 3.2 0.00 0.00 0.00 69 1011.4
20260507075525 13 322 1.6 3.2 0.00 0.00 0.00 69 1011.5
20260507074542 13 193 1.6 6.4 0.00 0.00 0.00 74 1011.6
20260507073520 12 225 1.6 4.8 0.00 0.00 0.00 74 1011.7
20260507072518 12 155 1.6 4.8 0.00 0.00 0.00 77 1011.6
20260507071516 12 0.0 3.2 0.00 0.00 0.00 80 1011.7
20260507070614 11 180 0.0 3.2 0.00 0.00 0.00 82 1011.8